Hourly Data Report for September 27, 2019

All times are specified in Local Standard Time (LST). Add 1 hour to adjust for Daylight Saving Time where and when it is observed.

EUREKA CLIMATE
NUNAVUT
Current Station Operator: ECCC - MSC

79°59'21.000" N
85°56'02.000" W
10.00 m
2401199
71613
NEK

Download Data

Hourly Data (September 2019)
Hourly Data Report for September 27, 2019
TIME Temp Definition
°C
Dew Point Definition
°C
Rel Hum Definition
%
Wind Dir Definition
10's deg

Wind Spd Definition
km/h
Visibility Definition
km
Stn Press Definition
kPa
Hmdx Definition


Wind Chill Definition


Weather Definition


00:00 -2.4 -2.6 98 30 6   100.22   -5 LegendNANA
01:00 -2.5 -2.6 99 30 5   100.26   -4 LegendNANA
02:00 -2.4 -2.5 99 31 3   100.31   -4 LegendNANA
03:00 -1.1 -1.1 100   0   100.36     LegendNANA
04:00 -0.5 -0.5 100 13 7   100.40   -3 LegendNANA
05:00 -0.2 -0.2 100 15 11   100.46   -4 LegendNANA
06:00 -0.4 -0.5 99 17 10   100.53   -4 LegendNANA
07:00 -0.2 -0.6 97 20 6   100.58   -2 LegendNANA
08:00 -0.1 -0.6 96 13 18   100.64   -5 LegendNANA
09:00 0.2 -0.4 96 12 10   100.69     LegendNANA
10:00 0.3 -0.5 95 13 13   100.74     LegendNANA
11:00 0.5 -0.2 95 13 15   100.80     LegendNANA
12:00 0.8 0.0 95 13 15   100.85     LegendNANA
13:00 0.9 0.2 95 13 25   100.87     LegendNANA
14:00 0.4 -0.1 97 13 22   100.93     LegendNANA
15:00 0.1 -0.1 98 15 7   100.95     LegendNANA
16:00 0.7 0.3 97 12 7   100.99     LegendNANA
17:00 0.1 -0.1 98 0 1   101.00     LegendNANA
18:00 0.4 0.2 99 1 9   100.98     LegendNANA
19:00 1.0 0.6 97 2 6   100.95     LegendNANA
20:00 1.3 0.6 95 36 14   100.86     LegendNANA
21:00 1.8 0.6 92 11 2   100.87     LegendNANA
22:00 0.4 -0.1 96 29 4   100.84     LegendNANA
23:00 0.1 -0.2 98 21 3   100.85     LegendNANA

Notes on Data Quality.

Legend

  • E = Estimated
  • M = Missing
  • NA = Not Available
Date modified: